Year,Month,Day,Hour,Minute,Value (Times are PST for temperature in C)
2008,06,29,00,00,17.30
2008,06,29,00,01,17.30
2008,06,29,00,02,17.30
2008,06,29,00,03,17.30
2008,06,29,00,04,17.30
2008,06,29,00,05,17.30
2008,06,29,00,06,17.30
2008,06,29,00,07,17.30
2008,06,29,00,08,17.30
2008,06,29,00,09,17.30
2008,06,29,00,10,17.30
2008,06,29,00,11,17.30
2008,06,29,00,12,17.30
2008,06,29,00,13,17.30
2008,06,29,00,14,17.30
2008,06,29,00,15,17.30
2008,06,29,00,16,17.30
2008,06,29,00,17,17.30
2008,06,29,00,18,17.30
2008,06,29,00,19,17.30
2008,06,29,00,20,17.30
2008,06,29,00,21,17.30
2008,06,29,00,22,17.20
2008,06,29,00,23,17.20
2008,06,29,00,24,17.20
2008,06,29,00,25,17.20
2008,06,29,00,26,17.20
2008,06,29,00,27,17.20
2008,06,29,00,28,17.10
2008,06,29,00,29,17.10
2008,06,29,00,30,17.10
2008,06,29,00,31,17.00
2008,06,29,00,32,17.00
2008,06,29,00,33,16.90
2008,06,29,00,34,16.90
2008,06,29,00,35,16.90
2008,06,29,00,36,16.90
2008,06,29,00,37,16.90
2008,06,29,00,38,16.90
2008,06,29,00,39,16.90
2008,06,29,00,40,16.90
2008,06,29,00,41,16.90
2008,06,29,00,42,16.90
2008,06,29,00,43,16.90
2008,06,29,00,44,16.80
2008,06,29,00,45,16.80
2008,06,29,00,46,16.80
2008,06,29,00,47,16.80
2008,06,29,00,48,16.80
2008,06,29,00,49,16.80
2008,06,29,00,50,16.80
2008,06,29,00,51,16.80
2008,06,29,00,52,16.80
2008,06,29,00,53,16.70
2008,06,29,00,54,16.70
2008,06,29,00,55,16.70
2008,06,29,00,56,16.70
2008,06,29,00,57,16.60
2008,06,29,00,58,16.60
2008,06,29,00,59,16.60
2008,06,29,01,00,16.60
2008,06,29,01,01,16.60
2008,06,29,01,02,16.50
2008,06,29,01,03,16.50
2008,06,29,01,04,16.50
2008,06,29,01,05,16.50
2008,06,29,01,06,16.50
2008,06,29,01,07,16.60
2008,06,29,01,08,16.60
2008,06,29,01,09,16.60
2008,06,29,01,10,16.60
2008,06,29,01,11,16.60
2008,06,29,01,12,16.60
2008,06,29,01,13,16.60
2008,06,29,01,14,16.60
2008,06,29,01,15,16.60
2008,06,29,01,16,16.60
2008,06,29,01,17,16.60
2008,06,29,01,18,16.60
2008,06,29,01,19,16.60
2008,06,29,01,20,16.60
2008,06,29,01,21,16.60
2008,06,29,01,22,16.60
2008,06,29,01,23,16.60
2008,06,29,01,24,16.70
2008,06,29,01,25,16.70
2008,06,29,01,26,16.80
2008,06,29,01,27,16.80
2008,06,29,01,28,16.80
2008,06,29,01,29,16.80
2008,06,29,01,30,16.80
2008,06,29,01,31,16.90
2008,06,29,01,32,16.90
2008,06,29,01,33,16.90
2008,06,29,01,34,16.90
2008,06,29,01,35,16.90
2008,06,29,01,36,16.90
2008,06,29,01,37,16.90
2008,06,29,01,38,16.90
2008,06,29,01,39,17.00
2008,06,29,01,40,17.00
2008,06,29,01,41,17.00
2008,06,29,01,42,17.00
2008,06,29,01,43,17.00
2008,06,29,01,44,16.90
2008,06,29,01,45,17.00
2008,06,29,01,46,16.90
2008,06,29,01,47,16.90
2008,06,29,01,48,16.90
2008,06,29,01,49,16.90
2008,06,29,01,50,16.90
2008,06,29,01,51,16.90
2008,06,29,01,52,16.80
2008,06,29,01,53,16.90
2008,06,29,01,54,16.90
2008,06,29,01,55,16.90
2008,06,29,01,56,17.00
2008,06,29,01,57,17.00
2008,06,29,01,58,17.00
2008,06,29,01,59,17.10
2008,06,29,02,00,17.10
2008,06,29,02,01,17.00
2008,06,29,02,02,17.00
2008,06,29,02,03,16.90
2008,06,29,02,04,16.90
2008,06,29,02,05,16.90
2008,06,29,02,06,16.80
2008,06,29,02,07,16.80
2008,06,29,02,08,16.80
2008,06,29,02,09,16.70
2008,06,29,02,10,16.70
2008,06,29,02,11,16.70
2008,06,29,02,12,16.60
2008,06,29,02,13,16.60
2008,06,29,02,14,16.60
2008,06,29,02,15,16.60
2008,06,29,02,16,16.60
2008,06,29,02,17,16.60
2008,06,29,02,18,16.60
2008,06,29,02,19,16.70
2008,06,29,02,20,16.70
2008,06,29,02,21,16.70
2008,06,29,02,22,16.70
2008,06,29,02,23,16.70
2008,06,29,02,24,16.70
2008,06,29,02,25,16.70
2008,06,29,02,26,16.60
2008,06,29,02,27,16.60
2008,06,29,02,28,16.70
2008,06,29,02,29,16.70
2008,06,29,02,30,16.70
2008,06,29,02,31,16.70
2008,06,29,02,32,16.70
2008,06,29,02,33,16.70
2008,06,29,02,34,16.60
2008,06,29,02,35,16.60
2008,06,29,02,36,16.60
2008,06,29,02,37,16.60
2008,06,29,02,38,16.60
2008,06,29,02,39,16.60
2008,06,29,02,40,16.60
2008,06,29,02,41,16.50
2008,06,29,02,42,16.50
2008,06,29,02,43,16.50
2008,06,29,02,44,16.50
2008,06,29,02,45,16.50
2008,06,29,02,46,16.50
2008,06,29,02,47,16.50
2008,06,29,02,48,16.50
2008,06,29,02,49,16.50
2008,06,29,02,50,16.50
2008,06,29,02,51,16.50
2008,06,29,02,52,16.50
2008,06,29,02,53,16.50
2008,06,29,02,54,16.50
2008,06,29,02,55,16.50
2008,06,29,02,56,16.40
2008,06,29,02,57,16.40
2008,06,29,02,58,16.40
2008,06,29,02,59,16.40
2008,06,29,03,00,16.40
2008,06,29,03,01,16.40
2008,06,29,03,02,16.40
2008,06,29,03,03,16.40
2008,06,29,03,04,16.50
2008,06,29,03,05,16.50
2008,06,29,03,06,16.50
2008,06,29,03,07,16.50
2008,06,29,03,08,16.50
2008,06,29,03,09,16.40
2008,06,29,03,10,16.40
2008,06,29,03,11,16.40
2008,06,29,03,12,16.40
2008,06,29,03,13,16.40
2008,06,29,03,14,16.50
2008,06,29,03,15,16.40
2008,06,29,03,16,16.40
2008,06,29,03,17,16.40
2008,06,29,03,18,16.40
2008,06,29,03,19,16.40
2008,06,29,03,20,16.40
2008,06,29,03,21,16.30
2008,06,29,03,22,16.30
2008,06,29,03,23,16.30
2008,06,29,03,24,16.30
2008,06,29,03,25,16.30
2008,06,29,03,26,16.20
2008,06,29,03,27,16.20
2008,06,29,03,28,16.20
2008,06,29,03,29,16.20
2008,06,29,03,30,16.20
2008,06,29,03,31,16.10
2008,06,29,03,32,16.10
2008,06,29,03,33,16.10
2008,06,29,03,34,16.10
2008,06,29,03,35,16.10
2008,06,29,03,36,16.10
2008,06,29,03,37,16.10
2008,06,29,03,38,16.00
2008,06,29,03,39,16.00
2008,06,29,03,40,16.00
2008,06,29,03,41,16.00
2008,06,29,03,42,16.00
2008,06,29,03,43,16.00
2008,06,29,03,44,16.00
2008,06,29,03,45,15.90
2008,06,29,03,46,15.90
2008,06,29,03,47,15.90
2008,06,29,03,48,15.90
2008,06,29,03,49,15.90
2008,06,29,03,50,15.90
2008,06,29,03,51,15.90
2008,06,29,03,52,15.80
2008,06,29,03,53,15.80
2008,06,29,03,54,15.90
2008,06,29,03,55,15.90
2008,06,29,03,56,15.90
2008,06,29,03,57,15.90
2008,06,29,03,58,15.90
2008,06,29,03,59,15.90
2008,06,29,04,00,15.90
2008,06,29,04,01,15.90
2008,06,29,04,02,15.90
2008,06,29,04,03,15.90
2008,06,29,04,04,15.90
2008,06,29,04,05,15.80
2008,06,29,04,06,15.80
2008,06,29,04,07,15.80
2008,06,29,04,08,15.80
2008,06,29,04,09,15.80
2008,06,29,04,10,15.70
2008,06,29,04,11,15.70
2008,06,29,04,12,15.70
2008,06,29,04,13,15.70
2008,06,29,04,14,15.70
2008,06,29,04,15,15.70
2008,06,29,04,16,15.60
2008,06,29,04,17,15.60
2008,06,29,04,18,15.60
2008,06,29,04,19,15.60
2008,06,29,04,20,15.60
2008,06,29,04,21,15.60
2008,06,29,04,22,15.60
2008,06,29,04,23,15.60
2008,06,29,04,24,15.50
2008,06,29,04,25,15.50
2008,06,29,04,26,15.50
2008,06,29,04,27,15.50
2008,06,29,04,28,15.50
2008,06,29,04,29,15.50
2008,06,29,04,30,15.50
2008,06,29,04,31,15.50
2008,06,29,04,32,15.50
2008,06,29,04,33,15.50
2008,06,29,04,34,15.40
2008,06,29,04,35,15.40
2008,06,29,04,36,15.40
2008,06,29,04,37,15.40
2008,06,29,04,38,15.40
2008,06,29,04,39,15.40
2008,06,29,04,40,15.40
2008,06,29,04,41,15.40
2008,06,29,04,42,15.40
2008,06,29,04,43,15.40
2008,06,29,04,44,15.40
2008,06,29,04,45,15.30
2008,06,29,04,46,15.30
2008,06,29,04,47,15.30
2008,06,29,04,48,15.30
2008,06,29,04,49,15.30
2008,06,29,04,50,15.20
2008,06,29,04,51,15.20
2008,06,29,04,52,15.20
2008,06,29,04,53,15.20
2008,06,29,04,54,15.20
2008,06,29,04,55,15.20
2008,06,29,04,56,15.20
2008,06,29,04,57,15.10
2008,06,29,04,58,15.10
2008,06,29,04,59,15.10
2008,06,29,05,00,15.10
2008,06,29,05,01,15.00
2008,06,29,05,02,15.00
2008,06,29,05,03,15.00
2008,06,29,05,04,15.00
2008,06,29,05,05,15.00
2008,06,29,05,06,15.00
2008,06,29,05,07,15.00
2008,06,29,05,08,15.00
2008,06,29,05,09,15.00
2008,06,29,05,10,15.00
2008,06,29,05,11,15.00
2008,06,29,05,12,15.00
2008,06,29,05,13,15.00
2008,06,29,05,14,15.00
2008,06,29,05,15,15.00
2008,06,29,05,16,15.00
2008,06,29,05,17,15.00
2008,06,29,05,18,15.00
2008,06,29,05,19,15.00
2008,06,29,05,20,15.00
2008,06,29,05,21,15.10
2008,06,29,05,22,15.10
2008,06,29,05,23,15.10
2008,06,29,05,24,15.10
2008,06,29,05,25,15.10
2008,06,29,05,26,15.10
2008,06,29,05,27,15.10
2008,06,29,05,28,15.10
2008,06,29,05,29,15.10
2008,06,29,05,30,15.10
2008,06,29,05,31,15.00
2008,06,29,05,32,15.00
2008,06,29,05,33,15.00
2008,06,29,05,34,15.00
2008,06,29,05,35,15.00
2008,06,29,05,36,15.00
2008,06,29,05,37,15.10
2008,06,29,05,38,15.10
2008,06,29,05,39,15.10
2008,06,29,05,40,15.20
2008,06,29,05,41,15.20
2008,06,29,05,42,15.20
2008,06,29,05,43,15.20
2008,06,29,05,44,15.20
2008,06,29,05,45,15.30
2008,06,29,05,46,15.30
2008,06,29,05,47,15.30
2008,06,29,05,48,15.40
2008,06,29,05,49,15.40
2008,06,29,05,50,15.50
2008,06,29,05,51,15.60
2008,06,29,05,52,15.60
2008,06,29,05,53,15.60
2008,06,29,05,54,15.70
2008,06,29,05,55,15.70
2008,06,29,05,56,15.70
2008,06,29,05,57,15.70
2008,06,29,05,58,15.70
2008,06,29,05,59,15.70
2008,06,29,06,00,15.70
2008,06,29,06,01,15.70
2008,06,29,06,02,15.70
2008,06,29,06,03,15.70
2008,06,29,06,04,15.70
2008,06,29,06,05,15.70
2008,06,29,06,06,15.70
2008,06,29,06,07,15.70
2008,06,29,06,08,15.70
2008,06,29,06,09,15.70
2008,06,29,06,10,15.70
2008,06,29,06,11,15.70
2008,06,29,06,12,15.60
2008,06,29,06,13,15.60
2008,06,29,06,14,15.70
2008,06,29,06,15,15.70
2008,06,29,06,16,15.70
2008,06,29,06,17,15.70
2008,06,29,06,18,15.70
2008,06,29,06,19,15.70
2008,06,29,06,20,15.80
2008,06,29,06,21,15.80
2008,06,29,06,22,15.80
2008,06,29,06,23,15.80
2008,06,29,06,24,15.90
2008,06,29,06,25,15.90
2008,06,29,06,26,16.00
2008,06,29,06,27,16.00
2008,06,29,06,28,16.10
2008,06,29,06,29,16.20
2008,06,29,06,30,16.20
2008,06,29,06,31,16.30
2008,06,29,06,32,16.40
2008,06,29,06,33,16.40
2008,06,29,06,34,16.50
2008,06,29,06,35,16.50
2008,06,29,06,36,16.60
2008,06,29,06,37,16.60
2008,06,29,06,38,16.70
2008,06,29,06,39,16.70
2008,06,29,06,40,16.70
2008,06,29,06,41,16.80
2008,06,29,06,42,16.80
2008,06,29,06,43,16.90
2008,06,29,06,44,16.90
2008,06,29,06,45,16.90
2008,06,29,06,46,17.00
2008,06,29,06,47,17.10
2008,06,29,06,48,17.10
2008,06,29,06,49,17.20
2008,06,29,06,50,17.30
2008,06,29,06,51,17.40
2008,06,29,06,52,17.50
2008,06,29,06,53,17.50
2008,06,29,06,54,17.60
2008,06,29,06,55,17.70
2008,06,29,06,56,17.80
2008,06,29,06,57,17.90
2008,06,29,06,58,17.90
2008,06,29,06,59,18.00
2008,06,29,07,00,18.10
2008,06,29,07,01,18.10
2008,06,29,07,02,18.20
2008,06,29,07,03,18.30
2008,06,29,07,04,18.30
2008,06,29,07,05,18.30
2008,06,29,07,06,18.40
2008,06,29,07,07,18.40
2008,06,29,07,08,18.50
2008,06,29,07,09,18.60
2008,06,29,07,10,18.60
2008,06,29,07,11,18.70
2008,06,29,07,12,18.70
2008,06,29,07,13,18.80
2008,06,29,07,14,18.90
2008,06,29,07,15,18.90
2008,06,29,07,16,18.90
2008,06,29,07,17,19.00
2008,06,29,07,18,19.10
2008,06,29,07,19,19.10
2008,06,29,07,20,19.20
2008,06,29,07,21,19.20
2008,06,29,07,22,19.30
2008,06,29,07,23,19.30
2008,06,29,07,24,19.40
2008,06,29,07,25,19.40
2008,06,29,07,26,19.40
2008,06,29,07,27,19.50
2008,06,29,07,28,19.50
2008,06,29,07,29,19.60
2008,06,29,07,30,19.60
2008,06,29,07,31,19.70
2008,06,29,07,32,19.70
2008,06,29,07,33,19.80
2008,06,29,07,34,19.80
2008,06,29,07,35,19.90
2008,06,29,07,36,19.90
2008,06,29,07,37,19.90
2008,06,29,07,38,20.00
2008,06,29,07,39,20.00
2008,06,29,07,40,20.10
2008,06,29,07,41,20.10
2008,06,29,07,42,20.20
2008,06,29,07,43,20.20
2008,06,29,07,44,20.20
2008,06,29,07,45,20.30
2008,06,29,07,46,20.30
2008,06,29,07,47,20.30
2008,06,29,07,48,20.40
2008,06,29,07,49,20.40
2008,06,29,07,50,20.40
2008,06,29,07,51,20.50
2008,06,29,07,52,20.50
2008,06,29,07,53,20.60
2008,06,29,07,54,20.60
2008,06,29,07,55,20.60
2008,06,29,07,56,20.70
2008,06,29,07,57,20.70
2008,06,29,07,58,20.80
2008,06,29,07,59,20.80
2008,06,29,08,00,20.90
2008,06,29,08,01,20.90
2008,06,29,08,02,20.90
2008,06,29,08,03,20.90
2008,06,29,08,04,21.00
2008,06,29,08,05,21.10
2008,06,29,08,06,21.10
2008,06,29,08,07,21.10
2008,06,29,08,08,21.20
2008,06,29,08,09,21.20
2008,06,29,08,10,21.30
2008,06,29,08,11,21.30
2008,06,29,08,12,21.40
2008,06,29,08,13,21.40
2008,06,29,08,14,21.40
2008,06,29,08,15,21.50
2008,06,29,08,16,21.50
2008,06,29,08,17,21.60
2008,06,29,08,18,21.70
2008,06,29,08,19,21.80
2008,06,29,08,20,21.80
2008,06,29,08,21,21.80
2008,06,29,08,22,21.70
2008,06,29,08,23,21.80
2008,06,29,08,24,21.80
2008,06,29,08,25,21.90
2008,06,29,08,26,22.00
2008,06,29,08,27,22.10
2008,06,29,08,28,22.20
2008,06,29,08,29,22.10
2008,06,29,08,30,22.10
2008,06,29,08,31,22.10
2008,06,29,08,32,22.10
2008,06,29,08,33,21.90
2008,06,29,08,34,21.60
2008,06,29,08,35,21.30
2008,06,29,08,36,21.20
2008,06,29,08,37,21.10
2008,06,29,08,38,21.00
2008,06,29,08,39,20.90
2008,06,29,08,40,20.90
2008,06,29,08,41,20.90
2008,06,29,08,42,20.90
2008,06,29,08,43,20.90
2008,06,29,08,44,20.90
2008,06,29,08,45,20.90
2008,06,29,08,46,21.00
2008,06,29,08,47,21.00
2008,06,29,08,48,21.10
2008,06,29,08,49,21.20
2008,06,29,08,50,21.20
2008,06,29,08,51,21.20
2008,06,29,08,52,21.30
2008,06,29,08,53,21.30
2008,06,29,08,54,21.50
2008,06,29,08,55,21.60
2008,06,29,08,56,21.70
2008,06,29,08,57,21.80
2008,06,29,08,58,21.90
2008,06,29,08,59,22.10
2008,06,29,09,00,22.10
2008,06,29,09,01,22.20
2008,06,29,09,02,22.10
2008,06,29,09,03,21.90
2008,06,29,09,04,21.60
2008,06,29,09,05,21.30
2008,06,29,09,06,21.10
2008,06,29,09,07,20.90
2008,06,29,09,08,20.90
2008,06,29,09,09,20.90
2008,06,29,09,10,21.00
2008,06,29,09,11,21.10
2008,06,29,09,12,21.20
2008,06,29,09,13,21.40
2008,06,29,09,14,21.50
2008,06,29,09,15,21.70
2008,06,29,09,16,21.80
2008,06,29,09,17,21.90
2008,06,29,09,18,22.10
2008,06,29,09,19,22.40
2008,06,29,09,20,22.70
2008,06,29,09,21,22.90
2008,06,29,09,22,23.20
2008,06,29,09,23,23.40
2008,06,29,09,24,23.60
2008,06,29,09,25,23.70
2008,06,29,09,26,23.80
2008,06,29,09,27,23.90
2008,06,29,09,28,24.00
2008,06,29,09,29,24.00
2008,06,29,09,30,24.10
2008,06,29,09,31,24.10
2008,06,29,09,32,24.00
2008,06,29,09,33,23.90
2008,06,29,09,34,23.80
2008,06,29,09,35,23.70
2008,06,29,09,36,23.50
2008,06,29,09,37,23.40
2008,06,29,09,38,23.40
2008,06,29,09,39,23.40
2008,06,29,09,40,23.40
2008,06,29,09,41,23.40
2008,06,29,09,42,23.40
2008,06,29,09,43,23.40
2008,06,29,09,44,23.50
2008,06,29,09,45,23.60
2008,06,29,09,46,23.80
2008,06,29,09,47,23.90
2008,06,29,09,48,24.00
2008,06,29,09,49,24.20
2008,06,29,09,50,24.30
2008,06,29,09,51,24.30
2008,06,29,09,52,24.30
2008,06,29,09,53,24.30
2008,06,29,09,54,24.40
2008,06,29,09,55,24.40
2008,06,29,09,56,24.50
2008,06,29,09,57,24.50
2008,06,29,09,58,24.50
2008,06,29,09,59,24.30
2008,06,29,10,00,24.10
2008,06,29,10,01,24.10
2008,06,29,10,02,24.00
2008,06,29,10,03,23.90
2008,06,29,10,04,23.90
2008,06,29,10,05,23.90
2008,06,29,10,06,24.00
2008,06,29,10,07,24.10
2008,06,29,10,08,24.30
2008,06,29,10,09,24.40
2008,06,29,10,10,24.50
2008,06,29,10,11,24.70
2008,06,29,10,12,24.70
2008,06,29,10,13,24.70
2008,06,29,10,14,24.70
2008,06,29,10,15,24.70
2008,06,29,10,16,24.80
2008,06,29,10,17,24.90
2008,06,29,10,18,24.80
2008,06,29,10,19,24.80
2008,06,29,10,20,24.80
2008,06,29,10,21,24.90
2008,06,29,10,22,24.90
2008,06,29,10,23,25.00
2008,06,29,10,24,25.10
2008,06,29,10,25,25.20
2008,06,29,10,26,25.30
2008,06,29,10,27,25.40
2008,06,29,10,28,25.50
2008,06,29,10,29,25.60
2008,06,29,10,30,25.60
2008,06,29,10,31,25.60
2008,06,29,10,32,25.50
2008,06,29,10,33,25.40
2008,06,29,10,34,25.40
2008,06,29,10,35,25.40
2008,06,29,10,36,25.40
2008,06,29,10,37,25.30
2008,06,29,10,38,25.30
2008,06,29,10,39,25.20
2008,06,29,10,40,25.20
2008,06,29,10,41,25.20
2008,06,29,10,42,25.20
2008,06,29,10,43,25.10
2008,06,29,10,44,25.00
2008,06,29,10,45,25.00
2008,06,29,10,46,25.00
2008,06,29,10,47,25.00
2008,06,29,10,48,25.10
2008,06,29,10,49,25.10
2008,06,29,10,50,25.10
2008,06,29,10,51,25.10
2008,06,29,10,52,25.10
2008,06,29,10,53,25.10
2008,06,29,10,54,25.10
2008,06,29,10,55,25.10
2008,06,29,10,56,25.20
2008,06,29,10,57,25.20
2008,06,29,10,58,25.30
2008,06,29,10,59,25.40
2008,06,29,11,00,25.60
2008,06,29,11,01,25.70
2008,06,29,11,02,25.80
2008,06,29,11,03,25.80
2008,06,29,11,04,25.80
2008,06,29,11,05,25.80
2008,06,29,11,06,25.80
2008,06,29,11,07,25.90
2008,06,29,11,08,25.90
2008,06,29,11,09,25.90
2008,06,29,11,10,25.90
2008,06,29,11,11,25.90
2008,06,29,11,12,25.90
2008,06,29,11,13,25.80
2008,06,29,11,14,25.70
2008,06,29,11,15,25.70
2008,06,29,11,16,25.70
2008,06,29,11,17,25.80
2008,06,29,11,18,25.80
2008,06,29,11,19,25.90
2008,06,29,11,20,25.90
2008,06,29,11,21,25.90
2008,06,29,11,22,26.00
2008,06,29,11,23,26.00
2008,06,29,11,24,25.90
2008,06,29,11,25,25.90
2008,06,29,11,26,26.00
2008,06,29,11,27,26.10
2008,06,29,11,28,26.10
2008,06,29,11,29,26.10
2008,06,29,11,30,26.10
2008,06,29,11,31,26.10
2008,06,29,11,32,26.10
2008,06,29,11,33,26.20
2008,06,29,11,34,26.20
2008,06,29,11,35,26.20
2008,06,29,11,36,26.30
2008,06,29,11,37,26.20
2008,06,29,11,38,26.00
2008,06,29,11,39,25.90
2008,06,29,11,40,25.90
2008,06,29,11,41,25.90
2008,06,29,11,42,25.90
2008,06,29,11,43,25.90
2008,06,29,11,44,25.90
2008,06,29,11,45,25.90
2008,06,29,11,46,25.90
2008,06,29,11,47,26.00
2008,06,29,11,48,26.10
2008,06,29,11,49,26.10
2008,06,29,11,50,26.10
2008,06,29,11,51,26.10
2008,06,29,11,52,26.00
2008,06,29,11,53,25.90
2008,06,29,11,54,25.80
2008,06,29,11,55,25.80
2008,06,29,11,56,25.80
2008,06,29,11,57,25.80
2008,06,29,11,58,25.80
2008,06,29,11,59,25.80
2008,06,29,12,00,25.90
2008,06,29,12,01,25.90
2008,06,29,12,02,25.90
2008,06,29,12,03,26.00
2008,06,29,12,04,26.00
2008,06,29,12,05,26.00
2008,06,29,12,06,26.00
2008,06,29,12,07,26.10
2008,06,29,12,08,26.20
2008,06,29,12,09,26.30
2008,06,29,12,10,26.50
2008,06,29,12,11,26.60
2008,06,29,12,12,26.60
2008,06,29,12,13,26.60
2008,06,29,12,14,26.50
2008,06,29,12,15,26.50
2008,06,29,12,16,26.40
2008,06,29,12,17,26.40
2008,06,29,12,18,26.40
2008,06,29,12,19,26.40
2008,06,29,12,20,26.40
2008,06,29,12,21,26.40
2008,06,29,12,22,26.40
2008,06,29,12,23,26.60
2008,06,29,12,24,26.60
2008,06,29,12,25,26.60
2008,06,29,12,26,26.60
2008,06,29,12,27,26.70
2008,06,29,12,28,26.70
2008,06,29,12,29,26.70
2008,06,29,12,30,26.70
2008,06,29,12,31,26.70
2008,06,29,12,32,26.70
2008,06,29,12,33,26.70
2008,06,29,12,34,26.80
2008,06,29,12,35,26.90
2008,06,29,12,36,26.90
2008,06,29,12,37,26.90
2008,06,29,12,38,27.00
2008,06,29,12,39,27.10
2008,06,29,12,40,27.20
2008,06,29,12,41,27.10
2008,06,29,12,42,27.10
2008,06,29,12,43,27.00
2008,06,29,12,44,26.90
2008,06,29,12,45,26.70
2008,06,29,12,46,26.60
2008,06,29,12,47,26.50
2008,06,29,12,48,26.40
2008,06,29,12,49,26.40
2008,06,29,12,50,26.40
2008,06,29,12,51,26.40
2008,06,29,12,52,26.40
2008,06,29,12,53,26.50
2008,06,29,12,54,26.50
2008,06,29,12,55,26.60
2008,06,29,12,56,26.60
2008,06,29,12,57,26.70
2008,06,29,12,58,26.80
2008,06,29,12,59,26.90
2008,06,29,13,00,27.00
2008,06,29,13,01,27.00
2008,06,29,13,02,27.10
2008,06,29,13,03,27.20
2008,06,29,13,04,27.40
2008,06,29,13,05,27.40
2008,06,29,13,06,27.40
2008,06,29,13,07,27.40
2008,06,29,13,08,27.40
2008,06,29,13,09,27.30
2008,06,29,13,10,27.30
2008,06,29,13,11,27.30
2008,06,29,13,12,27.40
2008,06,29,13,13,27.50
2008,06,29,13,14,27.60
2008,06,29,13,15,27.70
2008,06,29,13,16,27.70
2008,06,29,13,17,27.80
2008,06,29,13,18,28.00
2008,06,29,13,19,28.10
2008,06,29,13,20,28.20
2008,06,29,13,21,28.20
2008,06,29,13,22,28.20
2008,06,29,13,23,28.20
2008,06,29,13,24,28.10
2008,06,29,13,25,28.10
2008,06,29,13,26,28.10
2008,06,29,13,27,28.00
2008,06,29,13,28,28.00
2008,06,29,13,29,27.90
2008,06,29,13,30,27.90
2008,06,29,13,31,27.90
2008,06,29,13,32,27.90
2008,06,29,13,33,28.00
2008,06,29,13,34,27.90
2008,06,29,13,35,27.90
2008,06,29,13,36,27.80
2008,06,29,13,37,27.80
2008,06,29,13,38,27.60
2008,06,29,13,39,27.60
2008,06,29,13,40,27.60
2008,06,29,13,41,27.50
2008,06,29,13,42,27.40
2008,06,29,13,43,27.40
2008,06,29,13,44,27.40
2008,06,29,13,45,27.50
2008,06,29,13,46,27.60
2008,06,29,13,47,27.70
2008,06,29,13,48,27.80
2008,06,29,13,49,27.90
2008,06,29,13,50,28.00
2008,06,29,13,51,28.10
2008,06,29,13,52,28.20
2008,06,29,13,53,28.30
2008,06,29,13,54,28.40
2008,06,29,13,55,28.50
2008,06,29,13,56,28.60
2008,06,29,13,57,28.60
2008,06,29,13,58,28.60
2008,06,29,13,59,28.50
2008,06,29,14,00,28.20
2008,06,29,14,01,27.80
2008,06,29,14,02,27.30
2008,06,29,14,03,26.80
2008,06,29,14,04,26.30
2008,06,29,14,05,25.90
2008,06,29,14,06,25.60
2008,06,29,14,07,25.40
2008,06,29,14,08,25.20
2008,06,29,14,09,25.20
2008,06,29,14,10,25.30
2008,06,29,14,11,25.40
2008,06,29,14,12,25.50
2008,06,29,14,13,25.60
2008,06,29,14,14,25.80
2008,06,29,14,15,25.90
2008,06,29,14,16,25.90
2008,06,29,14,17,25.90
2008,06,29,14,18,25.80
2008,06,29,14,19,25.80
2008,06,29,14,20,25.80
2008,06,29,14,21,25.90
2008,06,29,14,22,25.90
2008,06,29,14,23,26.00
2008,06,29,14,24,26.20
2008,06,29,14,25,26.20
2008,06,29,14,26,26.10
2008,06,29,14,27,26.00
2008,06,29,14,28,25.90
2008,06,29,14,29,25.80
2008,06,29,14,30,25.80
2008,06,29,14,31,25.90
2008,06,29,14,32,25.90
2008,06,29,14,33,26.10
2008,06,29,14,34,26.20
2008,06,29,14,35,26.40
2008,06,29,14,36,26.60
2008,06,29,14,37,26.70
2008,06,29,14,38,26.80
2008,06,29,14,39,26.90
2008,06,29,14,40,27.00
2008,06,29,14,41,27.00
2008,06,29,14,42,27.00
2008,06,29,14,43,26.90
2008,06,29,14,44,26.90
2008,06,29,14,45,26.90
2008,06,29,14,46,26.80
2008,06,29,14,47,26.70
2008,06,29,14,48,26.60
2008,06,29,14,49,26.50
2008,06,29,14,50,26.40
2008,06,29,14,51,26.30
2008,06,29,14,52,26.20
2008,06,29,14,53,26.20
2008,06,29,14,54,26.10
2008,06,29,14,55,25.90
2008,06,29,14,56,25.90
2008,06,29,14,57,25.90
2008,06,29,14,58,25.90
2008,06,29,14,59,25.90
2008,06,29,15,00,25.90
2008,06,29,15,01,25.90
2008,06,29,15,02,25.90
2008,06,29,15,03,25.90
2008,06,29,15,04,26.00
2008,06,29,15,05,26.00
2008,06,29,15,06,26.10
2008,06,29,15,07,26.10
2008,06,29,15,08,26.10
2008,06,29,15,09,26.10
2008,06,29,15,10,26.10
2008,06,29,15,11,26.10
2008,06,29,15,12,26.10
2008,06,29,15,13,26.10
2008,06,29,15,14,26.10
2008,06,29,15,15,26.10
2008,06,29,15,16,26.10
2008,06,29,15,17,26.10
2008,06,29,15,18,26.10
2008,06,29,15,19,26.10
2008,06,29,15,20,26.10
2008,06,29,15,21,26.10
2008,06,29,15,22,26.20
2008,06,29,15,23,26.20
2008,06,29,15,24,26.30
2008,06,29,15,25,26.30
2008,06,29,15,26,26.30
2008,06,29,15,27,26.30
2008,06,29,15,28,26.30
2008,06,29,15,29,26.30
2008,06,29,15,30,26.30
2008,06,29,15,31,26.30
2008,06,29,15,32,26.30
2008,06,29,15,33,26.30
2008,06,29,15,34,26.30
2008,06,29,15,35,26.40
2008,06,29,15,36,26.50
2008,06,29,15,37,26.60
2008,06,29,15,38,26.70
2008,06,29,15,39,26.80
2008,06,29,15,40,26.80
2008,06,29,15,41,26.80
2008,06,29,15,42,26.80
2008,06,29,15,43,26.90
2008,06,29,15,44,26.90
2008,06,29,15,45,27.00
2008,06,29,15,46,27.00
2008,06,29,15,47,27.10
2008,06,29,15,48,27.10
2008,06,29,15,49,27.10
2008,06,29,15,50,27.10
2008,06,29,15,51,27.10
2008,06,29,15,52,27.10
2008,06,29,15,53,27.10
2008,06,29,15,54,27.10
2008,06,29,15,55,27.10
2008,06,29,15,56,27.00
2008,06,29,15,57,27.00
2008,06,29,15,58,26.90
2008,06,29,15,59,26.70
2008,06,29,16,00,26.50
2008,06,29,16,01,26.20
2008,06,29,16,02,26.00
2008,06,29,16,03,25.90
2008,06,29,16,04,25.70
2008,06,29,16,05,25.50
2008,06,29,16,06,25.30
2008,06,29,16,07,25.20
2008,06,29,16,08,25.00
2008,06,29,16,09,25.00
2008,06,29,16,10,24.90
2008,06,29,16,11,24.80
2008,06,29,16,12,24.80
2008,06,29,16,13,24.80
2008,06,29,16,14,24.80
2008,06,29,16,15,24.80
2008,06,29,16,16,24.80
2008,06,29,16,17,24.80
2008,06,29,16,18,24.80
2008,06,29,16,19,24.80
2008,06,29,16,20,24.90
2008,06,29,16,21,25.00
2008,06,29,16,22,25.10
2008,06,29,16,23,25.20
2008,06,29,16,24,25.20
2008,06,29,16,25,25.20
2008,06,29,16,26,25.20
2008,06,29,16,27,25.10
2008,06,29,16,28,25.10
2008,06,29,16,29,25.00
2008,06,29,16,30,25.00
2008,06,29,16,31,24.90
2008,06,29,16,32,24.80
2008,06,29,16,33,24.70
2008,06,29,16,34,24.50
2008,06,29,16,35,24.40
2008,06,29,16,36,24.40
2008,06,29,16,37,24.30
2008,06,29,16,38,24.30
2008,06,29,16,39,24.30
2008,06,29,16,40,24.30
2008,06,29,16,41,24.30
2008,06,29,16,42,24.40
2008,06,29,16,43,24.50
2008,06,29,16,44,24.50
2008,06,29,16,45,24.40
2008,06,29,16,46,24.30
2008,06,29,16,47,24.30
2008,06,29,16,48,24.20
2008,06,29,16,49,24.10
2008,06,29,16,50,24.00
2008,06,29,16,51,23.90
2008,06,29,16,52,23.80
2008,06,29,16,53,23.90
2008,06,29,16,54,23.90
2008,06,29,16,55,23.90
2008,06,29,16,56,23.90
2008,06,29,16,57,23.80
2008,06,29,16,58,23.80
2008,06,29,16,59,23.90
2008,06,29,17,00,23.90
2008,06,29,17,01,23.90
2008,06,29,17,02,23.90
2008,06,29,17,03,23.90
2008,06,29,17,04,23.90
2008,06,29,17,05,23.90
2008,06,29,17,06,23.90
2008,06,29,17,07,23.80
2008,06,29,17,08,23.80
2008,06,29,17,09,23.90
2008,06,29,17,10,24.00
2008,06,29,17,11,24.10
2008,06,29,17,12,24.10
2008,06,29,17,13,24.10
2008,06,29,17,14,24.20
2008,06,29,17,15,24.20
2008,06,29,17,16,24.30
2008,06,29,17,17,24.40
2008,06,29,17,18,24.40
2008,06,29,17,19,24.50